Wind_Speed
8 7 7 6 6 6 6 7 7 7 7 7 7 7 6 6 5 5 4 4 4 2 1 0 1 3 4 5 5 6 6 6 6 7 6 5 6 6 6 6 6 5 5
8 7 7 6 6 6 6 6 6 7 7 7 7 7 6 6 5 5 5 4 4 2 1 1 1 2 3 4 5 5 5 5 6 7 6 6 6 6 6 6 6 5 5
8 7 7 7 6 6 6 6 6 7 7 7 7 7 6 5 5 5 4 4 3 2 1 2 2 2 3 3 4 4 4 5 5 6 6 6 6 7 6 5 6 5 5
9 8 7 7 7 6 6 6 6 6 7 7 7 7 6 5 5 5 4 4 3 3 2 2 2 3 3 3 3 4 3 4 4 5 6 6 6 6 6 5 6 6 5
9 8 7 7 7 6 6 6 6 6 6 6 6 6 6 5 5 5 5 4 4 4 3 3 4 3 3 4 4 4 4 3 4 5 5 7 7 7 7 7 6 5 5
9 9 8 7 7 6 6 6 6 6 7 7 7 7 6 6 6 6 6 5 4 4 4 4 4 5 4 4 4 4 4 4 5 5 5 5 6 7 8 8 7 6 5
9 9 9 8 7 7 6 6 6 6 7 7 8 7 6 7 7 7 6 6 5 5 5 5 5 5 5 5 6 5 6 5 4 5 5 5 5 7 7 7 7 6 6
10 9 9 9 7 7 7 6 6 6 7 7 8 8 7 7 7 6 5 5 5 5 5 5 5 5 5 5 5 5 6 6 5 5 5 6 6 6 7 7 6 6 7
9 9 8 9 9 9 7 7 7 7 8 8 9 8 8 8 7 5 4 4 5 6 6 6 6 5 6 5 6 5 5 6 6 6 6 6 6 6 6 7 8 8 8
9 9 9 8 9 9 8 8 8 8 8 9 9 9 9 9 8 6 5 4 5 6 6 6 7 6 7 7 6 6 6 6 6 7 7 7 6 6 6 6 8 9 9
9 9 9 9 9 9 9 8 9 9 9 9 10 9 9 9 8 8 6 6 6 6 7 7 7 7 7 8 8 7 7 7 7 7 8 8 8 7 7 7 8 9 9
9 9 9 9 9 9 9 9 10 10 10 10 10 9 9 9 9 8 7 7 7 7 7 7 7 8 8 9 9 8 8 8 8 8 8 8 8 8 8 8 8 8 8
9 9 10 10 9 9 9 10 11 11 10 10 10 10 9 9 9 8 7 7 7 8 8 8 8 8 9 9 9 9 9 9 8 8 9 8 8 8 9 9 8 8 8
9 9 10 10 10 10 10 10 11 11 10 10 10 10 9 8 8 8 8 7 7 8 7 8 8 8 9 10 10 10 9 9 9 9 9 9 9 8 8 9 9 9 9
10 10 10 10 11 10 10 11 11 11 11 10 10 10 10 9 9 9 9 8 8 8 7 7 8 8 9 10 10 10 9 9 9 9 9 9 9 8 8 9 10 9 9
10 10 10 10 10 10 10 11 12 12 11 11 11 10 10 10 9 8 8 7 7 7 7 7 8 8 9 9 9 9 9 9 9 9 9 9 9 9 9 10 9 9 9
11 11 12 12 11 11 11 11 12 12 12 12 11 11 10 9 8 8 7 7 7 7 7 7 7 7 8 8 8 8 9 9 9 9 9 9 9 9 10 10 10 10 9
12 12 12 13 12 12 12 12 13 14 13 12 12 11 10 9 8 8 8 7 7 7 7 7 7 7 7 7 7 7 8 9 9 9 9 10 10 10 10 10 10 10 9
13 13 13 13 13 13 13 13 13 14 13 12 12 11 10 9 8 8 8 8 8 8 8 7 7 7 7 7 7 7 8 9 10 10 10 10 10 10 10 10 11 11 11
13 14 13 12 13 13 13 14 14 14 14 12 11 10 10 9 8 8 8 8 8 8 8 7 7 7 8 8 8 8 9 9 10 10 10 10 10 10 11 11 11 11 11
13 14 13 13 13 14 14 14 14 13 13 12 11 10 9 9 8 8 8 8 8 8 8 8 7 7 7 8 9 9 9 10 10 10 11 11 11 11 11 12 12 12 12
14 13 13 14 14 14 14 14 14 14 13 12 10 9 8 8 7 7 7 7 7 8 8 7 8 9 9 9 9 9 9 10 10 11 12 12 12 12 12 12 12 13 13
15 14 14 14 14 15 15 14 14 14 13 12 11 9 7 7 7 7 7 7 8 8 8 8 8 9 9 9 8 8 8 9 10 10 12 12 12 12 13 12 13 13 13
15 15 15 15 14 14 15 14 14 14 13 12 11 9 7 7 7 8 8 8 7 8 7 8 8 8 8 8 9 9 9 10 10 11 11 11 11 12 13 13 13 13 14
17 16 16 15 15 15 15 14 14 14 13 12 10 8 8 7 8 8 8 8 8 8 8 8 7 7 7 8 8 9 10 11 11 11 11 12 12 12 12 13 13 14 14
17 16 16 15 15 15 14 14 14 14 13 12 10 9 8 8 8 8 8 8 8 8 8 8 8 8 8 8 7 8 10 10 11 11 11 11 11 12 12 13 14 14 14
Wind_Direction
8 6 8 7 3 0 358 355 351 352 352 350 349 342 329 324 322 320 321 326 331 331 356 0 150 147 164 176 181 185 191 195 198 195 191 184 181 175 176 175 170 168 164
6 3 3 2 358 352 350 348 345 343 344 344 344 342 333 324 316 310 314 318 321 308 234 213 194 180 190 183 182 190 191 198 198 193 183 177 178 177 177 178 178 177 175
4 1 358 356 352 347 344 342 339 337 337 339 341 339 334 326 314 302 301 306 311 302 261 221 203 210 203 199 207 213 201 197 193 190 184 177 176 177 178 181 185 184 186
3 358 354 352 348 345 339 335 331 330 331 334 336 336 333 325 312 301 293 288 293 293 274 235 227 226 222 223 224 219 212 209 199 190 188 184 183 182 183 182 183 184 193
2 357 356 349 343 342 340 334 333 333 332 332 332 329 327 321 312 295 286 280 276 274 264 249 239 243 240 235 231 226 222 211 214 199 196 192 191 192 192 189 191 195 203
360 357 348 343 343 344 342 336 332 333 333 331 329 325 320 313 307 293 282 276 270 265 261 249 244 249 243 239 237 231 229 226 226 209 202 200 200 197 198 200 204 208 211
358 356 352 343 345 346 345 340 334 333 333 330 328 324 318 313 306 296 281 271 261 259 261 250 251 255 249 249 241 236 232 228 223 218 225 221 213 210 206 208 208 212 218
358 353 351 349 349 349 348 340 337 336 336 333 331 326 318 315 315 311 287 266 262 262 261 254 255 254 249 247 245 239 235 228 219 223 225 230 231 223 219 218 216 222 224
359 356 354 350 350 350 348 343 340 335 331 329 330 324 320 318 315 312 290 268 269 267 268 263 258 256 250 249 244 237 235 234 237 228 227 231 231 229 228 225 225 232 234
353 354 352 352 353 354 351 346 340 337 331 329 331 324 318 318 313 305 292 276 273 270 267 268 262 257 249 244 240 238 238 243 246 243 241 241 240 238 237 233 232 237 241
350 353 351 350 354 354 352 350 345 335 329 330 332 327 320 315 311 303 288 286 276 273 270 267 262 253 250 245 240 239 240 244 247 246 245 244 245 242 240 246 245 245 245
349 348 345 347 348 346 347 345 341 339 333 331 332 329 323 314 308 303 290 288 279 272 269 264 259 253 251 248 242 241 243 245 242 248 251 250 244 242 244 248 249 253 251
344 344 346 344 343 341 340 338 337 338 335 332 331 328 323 315 306 305 299 292 281 274 269 265 262 256 251 248 245 245 245 248 243 248 255 254 248 249 247 250 251 258 260
344 345 345 342 339 339 338 335 334 335 333 331 330 328 322 314 309 302 295 291 284 277 271 267 263 260 252 248 246 248 251 250 248 248 251 252 252 255 254 253 256 259 259
340 340 342 339 338 338 339 336 333 332 331 329 328 330 323 310 307 305 297 287 283 275 269 267 264 260 257 251 248 250 251 251 250 251 251 252 249 252 251 256 254 258 262
337 334 333 336 340 340 337 336 335 332 329 328 328 327 322 312 303 301 298 291 282 275 271 268 267 262 260 254 250 251 250 250 253 254 251 250 252 254 255 254 257 260 263
331 332 330 333 336 336 335 332 332 332 330 328 327 326 322 316 312 304 296 291 281 271 271 270 267 265 262 257 252 252 251 250 252 254 253 252 251 250 254 253 253 257 263
322 325 325 325 327 328 330 330 330 329 330 326 324 322 322 317 311 306 297 293 282 272 267 269 269 262 257 253 248 249 250 254 257 257 255 254 252 250 251 251 255 256 264
315 319 320 320 321 322 324 326 329 327 329 326 324 322 322 318 310 307 300 296 291 279 271 270 270 261 253 251 248 252 255 258 261 263 259 255 254 252 248 251 255 259 267
306 311 314 315 316 319 321 323 325 329 327 323 323 322 321 315 308 304 300 297 291 284 274 269 271 261 254 253 253 260 260 261 262 262 260 258 257 255 255 257 259 261 264
301 305 308 310 311 315 318 319 321 325 327 323 320 320 318 313 306 303 298 291 289 283 271 264 267 263 259 255 257 262 262 264 262 262 262 262 259 259 262 260 259 262 262
295 298 302 305 307 311 313 314 317 320 323 322 322 318 314 307 303 302 301 300 291 285 274 272 271 265 260 258 258 257 262 264 265 266 266 265 263 263 262 261 261 262 261
290 292 295 298 301 305 308 308 312 316 317 317 319 315 314 306 303 301 303 301 294 288 280 273 269 267 266 259 254 255 262 263 261 264 267 268 267 266 262 261 264 265 263
288 290 294 297 298 300 301 303 308 311 312 315 314 312 311 305 300 301 302 298 289 289 286 274 268 267 264 262 258 259 263 267 262 266 265 266 269 266 263 262 265 264 264
287 288 295 296 299 298 297 300 303 304 305 308 306 303 304 306 302 299 302 298 292 286 282 280 273 269 266 267 266 265 269 270 269 269 267 266 266 267 267 267 265 263 264
286 288 292 294 296 297 295 296 300 300 300 301 297 296 295 299 302 301 300 301 299 290 281 276 274 268 266 269 274 277 276 274 270 270 269 268 268 268 268 271 267 265 267
Height
5898 5897 5897 5896 5895 5894 5894 5893 5892 5891 5891 5890 5889 5888 5887 5886 5885 5885 5884 5883 5882 5882 5881 5880 5879 5879 5879 5880 5881 5881 5882 5882 5883 5883 5884 5884 5884 5885 5886 5887 5887 5888 5888
5898 5897 5897 5896 5895 5894 5894 5893 5892 5891 5891 5890 5889 5888 5887 5886 5885 5884 5884 5883 5882 5882 5881 5880 5880 5880 5880 5880 5880 5881 5881 5882 5882 5883 5883 5884 5884 5885 5885 5886 5887 5888 5888
5898 5897 5896 5896 5895 5894 5894 5893 5892 5891 5890 5889 5888 5887 5886 5885 5884 5883 5883 5882 5882 5882 5881 5881 5880 5880 5880 5880 5880 5881 5881 5881 5882 5882 5883 5883 5884 5884 5885 5886 5886 5887 5888
5897 5897 5896 5895 5895 5894 5893 5892 5892 5891 5890 5889 5888 5887 5885 5884 5883 5883 5882 5882 5882 5881 5881 5881 5881 5880 5880 5880 5880 5880 5880 5881 5881 5882 5882 5883 5883 5884 5885 5885 5886 5887 5887
5898 5896 5896 5895 5894 5893 5893 5892 5891 5890 5889 5888 5887 5886 5885 5884 5883 5882 5881 5881 5881 5881 5881 5881 5881 5880 5880 5880 5880 5880 5880 5880 5881 5881 5882 5883 5883 5883 5884 5885 5885 5886 5886
5898 5897 5896 5895 5894 5893 5892 5891 5890 5889 5888 5887 5886 5885 5884 5883 5882 5881 5880 5880 5880 5880 5880 5880 5881 5880 5880 5880 5880 5880 5880 5880 5881 5881 5882 5882 5883 5883 5883 5884 5885 5885 5885
5898 5897 5895 5895 5894 5892 5891 5891 5890 5889 5888 5887 5885 5884 5883 5882 5880 5879 5877 5878 5879 5879 5879 5880 5880 5880 5880 5880 5880 5880 5880 5880 5880 5881 5881 5882 5882 5883 5883 5883 5884 5884 5885
5898 5896 5895 5894 5893 5892 5891 5890 5889 5888 5887 5886 5884 5883 5882 5880 5879 5876 5874 5876 5877 5878 5878 5879 5879 5879 5879 5879 5879 5879 5879 5879 5880 5880 5881 5881 5881 5882 5882 5882 5883 5883 5883
5898 5896 5895 5893 5892 5891 5890 5889 5888 5887 5886 5885 5883 5882 5881 5879 5878 5875 5874 5875 5877 5877 5877 5878 5878 5878 5878 5878 5878 5878 5878 5879 5879 5879 5879 5880 5880 5881 5881 5881 5881 5881 5882
5897 5896 5894 5893 5892 5890 5889 5888 5887 5886 5885 5884 5882 5881 5880 5878 5877 5876 5875 5875 5876 5876 5876 5877 5877 5877 5876 5876 5877 5877 5877 5878 5878 5879 5879 5879 5879 5880 5880 5880 5880 5880 5880
5897 5895 5894 5892 5891 5890 5889 5888 5886 5885 5884 5882 5881 5880 5878 5877 5876 5875 5875 5874 5875 5875 5875 5875 5875 5875 5875 5875 5875 5876 5876 5876 5877 5877 5878 5878 5878 5878 5878 5879 5878 5878 5879
5896 5894 5893 5891 5890 5889 5888 5887 5886 5884 5882 5881 5880 5878 5877 5876 5875 5874 5874 5873 5873 5873 5873 5873 5873 5873 5873 5873 5874 5874 5874 5875 5875 5876 5876 5876 5876 5876 5877 5877 5876 5876 5876
5895 5893 5892 5891 5890 5888 5887 5886 5885 5883 5881 5880 5878 5877 5876 5874 5873 5873 5872 5872 5872 5871 5871 5871 5871 5871 5872 5872 5872 5872 5873 5873 5873 5874 5874 5874 5874 5875 5875 5875 5875 5875 5875
5894 5893 5891 5890 5889 5887 5886 5885 5883 5882 5880 5878 5877 5875 5874 5873 5872 5871 5871 5870 5870 5869 5869 5869 5869 5869 5870 5870 5870 5871 5871 5872 5872 5872 5872 5873 5873 5873 5873 5873 5873 5873 5873
5893 5892 5891 5889 5888 5886 5885 5883 5882 5880 5879 5877 5875 5873 5872 5871 5870 5869 5869 5868 5868 5867 5867 5867 5867 5867 5867 5868 5868 5869 5869 5870 5870 5870 5870 5870 5871 5871 5871 5871 5871 5871 5870
5892 5891 5890 5888 5886 5885 5883 5882 5880 5879 5877 5875 5874 5872 5870 5869 5868 5867 5867 5867 5866 5866 5865 5865 5865 5865 5865 5865 5866 5866 5867 5868 5868 5868 5868 5868 5868 5868 5868 5869 5869 5868 5868
5890 5889 5888 5887 5885 5884 5882 5881 5879 5877 5875 5873 5872 5870 5869 5867 5866 5865 5865 5864 5864 5864 5863 5863 5863 5863 5863 5863 5863 5864 5864 5865 5865 5866 5866 5866 5866 5867 5867 5867 5867 5866 5865
5888 5887 5886 5884 5884 5882 5880 5879 5877 5875 5873 5871 5869 5868 5867 5865 5864 5863 5862 5862 5862 5861 5861 5861 5861 5861 5861 5861 5861 5861 5862 5862 5863 5863 5863 5863 5864 5864 5864 5864 5864 5863 5863
5886 5885 5884 5882 5881 5880 5878 5877 5875 5873 5871 5869 5867 5866 5864 5863 5862 5861 5860 5860 5859 5859 5859 5859 5859 5859 5859 5859 5859 5859 5859 5860 5860 5860 5860 5860 5861 5861 5861 5861 5861 5861 5860
5883 5883 5881 5880 5879 5877 5876 5874 5872 5870 5868 5866 5865 5863 5862 5861 5860 5859 5858 5858 5857 5857 5856 5856 5856 5856 5857 5857 5857 5857 5857 5857 5857 5857 5857 5858 5858 5858 5858 5858 5858 5857 5857
5881 5880 5879 5878 5877 5875 5873 5871 5870 5868 5866 5864 5862 5861 5859 5858 5857 5857 5856 5855 5855 5854 5854 5853 5854 5854 5854 5854 5855 5854 5855 5855 5855 5855 5855 5855 5855 5855 5855 5854 5854 5854 5853
5878 5878 5876 5875 5874 5872 5871 5869 5867 5865 5863 5862 5860 5859 5857 5856 5855 5854 5854 5853 5853 5852 5851 5851 5851 5851 5852 5852 5852 5852 5852 5853 5852 5852 5851 5851 5851 5851 5851 5851 5850 5850 5850
5876 5875 5873 5872 5870 5869 5868 5866 5865 5863 5861 5860 5858 5856 5855 5854 5853 5853 5852 5851 5850 5849 5849 5849 5849 5849 5849 5849 5849 5850 5850 5850 5849 5849 5848 5848 5847 5847 5847 5847 5847 5846 5846
5873 5872 5870 5869 5867 5865 5864 5863 5862 5861 5859 5857 5856 5854 5853 5852 5851 5850 5850 5849 5848 5847 5846 5846 5846 5846 5846 5846 5846 5846 5847 5846 5846 5845 5845 5844 5843 5843 5843 5843 5843 5842 5842
5869 5868 5867 5865 5864 5863 5861 5860 5859 5858 5857 5855 5853 5852 5851 5850 5849 5848 5847 5846 5846 5845 5844 5844 5844 5844 5844 5844 5844 5843 5843 5843 5842 5841 5841 5841 5840 5840 5839 5839 5839 5838 5838
5865 5864 5863 5862 5861 5860 5858 5857 5856 5855 5853 5852 5851 5850 5849 5848 5847 5846 5845 5844 5843 5843 5842 5842 5842 5841 5841 5841 5841 5840 5840 5839 5838 5838 5837 5837 5837 5836 5835 5835 5834 5834 5834